Time,TemperatureF,DewpointF,PressureIn,WindDirection,WindDirectionDegrees,WindSpeedMPH,WindSpeedGustMPH,Humidity,HourlyPrecipIn,Conditions,Clouds,dailyrainin,SoftwareType,DateUTC
2013-04-21 00:01:00,54.9,42.1,29.99,NE,45,0.0,0.0,62,0.00,,,0.00,WUHU216HW,2013-04-21 07:01:00,
2013-04-21 00:06:00,54.7,42.3,29.99,ENE,68,0.0,0.4,63,0.00,,,0.00,WUHU216HW,2013-04-21 07:06:00,
2013-04-21 00:11:00,54.5,42.2,29.99,East,90,0.0,0.4,63,0.00,,,0.00,WUHU216HW,2013-04-21 07:11:00,
2013-04-21 00:16:00,54.4,42.4,29.99,ENE,68,0.2,0.4,64,0.00,,,0.00,WUHU216HW,2013-04-21 07:16:00,
2013-04-21 00:21:00,54.2,42.2,29.99,East,90,0.2,0.4,64,0.00,,,0.00,WUHU216HW,2013-04-21 07:21:00,
2013-04-21 00:26:00,54.0,42.5,29.99,East,90,0.2,0.7,65,0.00,,,0.00,WUHU216HW,2013-04-21 07:26:00,
2013-04-21 00:31:00,53.6,42.1,29.99,East,90,0.2,0.7,65,0.00,,,0.00,WUHU216HW,2013-04-21 07:31:00,
2013-04-21 00:36:00,53.5,41.9,29.99,East,90,0.0,0.2,65,0.00,,,0.00,WUHU216HW,2013-04-21 07:36:00,
2013-04-21 00:41:00,53.3,42.2,29.99,East,90,0.4,0.4,66,0.00,,,0.00,WUHU216HW,2013-04-21 07:41:00,
2013-04-21 00:46:00,52.9,41.9,29.99,ENE,68,0.2,0.4,66,0.00,,,0.00,WUHU216HW,2013-04-21 07:46:00,
2013-04-21 00:51:00,52.9,42.2,29.99,ENE,68,0.2,0.4,67,0.00,,,0.00,WUHU216HW,2013-04-21 07:51:00,
2013-04-21 00:56:00,52.7,42.1,29.99,ENE,68,0.2,0.4,67,0.00,,,0.00,WUHU216HW,2013-04-21 07:56:00,
2013-04-21 01:01:00,52.6,42.0,29.99,ENE,68,0.0,0.4,67,0.00,,,0.00,WUHU216HW,2013-04-21 08:01:00,
2013-04-21 01:06:00,52.2,41.9,29.99,ENE,68,0.0,0.2,68,0.00,,,0.00,WUHU216HW,2013-04-21 08:06:00,
2013-04-21 01:11:00,52.2,42.4,29.99,NE,45,0.0,0.2,69,0.00,,,0.00,WUHU216HW,2013-04-21 08:11:00,
2013-04-21 01:16:00,52.0,42.2,29.99,NE,45,0.4,0.4,69,0.00,,,0.00,WUHU216HW,2013-04-21 08:16:00,
2013-04-21 01:21:00,51.8,41.7,29.99,NE,45,0.0,0.4,68,0.00,,,0.00,WUHU216HW,2013-04-21 08:21:00,
2013-04-21 01:26:00,51.8,41.7,29.99,NE,45,0.0,0.4,68,0.00,,,0.00,WUHU216HW,2013-04-21 08:26:00,
2013-04-21 01:31:00,51.7,41.9,29.98,ENE,68,0.4,0.4,69,0.00,,,0.00,WUHU216HW,2013-04-21 08:31:00,
2013-04-21 01:36:00,51.5,41.7,29.98,ENE,68,0.0,0.4,69,0.00,,,0.00,WUHU216HW,2013-04-21 08:36:00,
2013-04-21 01:41:00,51.5,41.7,29.98,ENE,68,0.4,0.4,69,0.00,,,0.00,WUHU216HW,2013-04-21 08:41:00,
2013-04-21 01:46:00,51.1,41.8,29.98,East,90,0.4,0.4,70,0.00,,,0.00,WUHU216HW,2013-04-21 08:46:00,
2013-04-21 01:51:00,50.9,41.6,29.98,East,90,0.0,0.4,70,0.00,,,0.00,WUHU216HW,2013-04-21 08:51:00,
2013-04-21 01:56:00,50.8,41.4,29.98,East,90,0.0,0.2,70,0.00,,,0.00,WUHU216HW,2013-04-21 08:56:00,
2013-04-21 02:01:00,50.8,41.4,29.98,East,90,0.0,0.0,70,0.00,,,0.00,WUHU216HW,2013-04-21 09:01:00,
2013-04-21 02:06:00,50.6,41.6,29.98,East,90,0.4,0.4,71,0.00,,,0.00,WUHU216HW,2013-04-21 09:06:00,
2013-04-21 02:11:00,50.4,41.4,29.98,ENE,68,0.9,0.9,71,0.00,,,0.00,WUHU216HW,2013-04-21 09:11:00,
2013-04-21 02:16:00,50.2,41.6,29.98,ENE,68,0.7,0.9,72,0.00,,,0.00,WUHU216HW,2013-04-21 09:16:00,
2013-04-21 02:21:00,50.0,41.4,29.98,ENE,68,0.4,0.7,72,0.00,,,0.00,WUHU216HW,2013-04-21 09:21:00,
2013-04-21 02:26:00,50.0,41.4,29.97,ENE,68,0.4,0.7,72,0.00,,,0.00,WUHU216HW,2013-04-21 09:26:00,
2013-04-21 02:31:00,50.0,41.4,29.97,ENE,68,0.0,0.4,72,0.00,,,0.00,WUHU216HW,2013-04-21 09:31:00,
2013-04-21 02:36:00,49.9,41.2,29.97,ENE,68,0.0,0.4,72,0.00,,,0.00,WUHU216HW,2013-04-21 09:36:00,
2013-04-21 02:41:00,49.7,41.1,29.97,ENE,68,0.0,0.0,72,0.00,,,0.00,WUHU216HW,2013-04-21 09:41:00,
2013-04-21 02:46:00,49.7,41.1,29.97,ENE,68,0.0,0.0,72,0.00,,,0.00,WUHU216HW,2013-04-21 09:46:00,
2013-04-21 02:51:00,49.5,40.9,29.97,NE,45,0.2,0.4,72,0.00,,,0.00,WUHU216HW,2013-04-21 09:51:00,
2013-04-21 02:56:00,49.3,41.0,29.97,NE,45,0.2,0.4,73,0.00,,,0.00,WUHU216HW,2013-04-21 09:56:00,
2013-04-21 03:01:00,49.3,41.0,29.97,NE,45,0.0,0.4,73,0.00,,,0.00,WUHU216HW,2013-04-21 10:01:00,
2013-04-21 03:07:00,49.1,41.5,29.97,ENE,68,0.4,0.9,75,0.00,,,0.00,WUHU216HW,2013-04-21 10:07:00,
2013-04-21 03:12:00,49.1,41.5,29.97,ENE,68,0.0,0.9,75,0.00,,,0.00,WUHU216HW,2013-04-21 10:12:00,
2013-04-21 03:17:00,49.0,41.0,29.97,ENE,68,0.2,0.2,74,0.00,,,0.00,WUHU216HW,2013-04-21 10:17:00,
2013-04-21 03:22:00,49.0,41.0,29.96,ENE,68,0.0,0.2,74,0.00,,,0.00,WUHU216HW,2013-04-21 10:22:00,
2013-04-21 03:27:00,48.8,40.8,29.96,ENE,68,0.0,0.0,74,0.00,,,0.00,WUHU216HW,2013-04-21 10:27:00,
2013-04-21 03:32:00,48.6,40.6,29.96,ENE,68,0.4,0.4,74,0.00,,,0.00,WUHU216HW,2013-04-21 10:32:00,
2013-04-21 03:37:00,48.6,40.6,29.96,ENE,68,0.0,0.4,74,0.00,,,0.00,WUHU216HW,2013-04-21 10:37:00,
2013-04-21 03:42:00,48.6,41.0,29.96,East,90,0.0,0.4,75,0.00,,,0.00,WUHU216HW,2013-04-21 10:42:00,
2013-04-21 03:47:00,48.2,40.6,29.96,East,90,0.0,0.0,75,0.00,,,0.00,WUHU216HW,2013-04-21 10:47:00,
2013-04-21 03:52:00,48.2,40.6,29.96,ENE,68,0.0,0.0,75,0.00,,,0.00,WUHU216HW,2013-04-21 10:52:00,
2013-04-21 03:57:00,48.1,40.8,29.96,NE,45,0.4,0.4,76,0.00,,,0.00,WUHU216HW,2013-04-21 10:57:00,
2013-04-21 04:02:00,47.9,40.6,29.96,NE,45,0.0,0.4,76,0.00,,,0.00,WUHU216HW,2013-04-21 11:02:00,
2013-04-21 04:07:00,47.9,41.0,29.97,NE,45,0.4,0.4,77,0.00,,,0.00,WUHU216HW,2013-04-21 11:07:00,
2013-04-21 04:12:00,47.9,41.0,29.97,NE,45,0.0,0.4,77,0.00,,,0.00,WUHU216HW,2013-04-21 11:12:00,
2013-04-21 04:17:00,47.9,41.0,29.97,ENE,68,0.4,0.4,77,0.00,,,0.00,WUHU216HW,2013-04-21 11:17:00,
2013-04-21 04:22:00,47.7,41.1,29.96,East,90,0.2,0.4,78,0.00,,,0.00,WUHU216HW,2013-04-21 11:22:00,
2013-04-21 04:27:00,47.7,41.5,29.96,ENE,68,0.4,0.7,79,0.00,,,0.00,WUHU216HW,2013-04-21 11:27:00,
2013-04-21 04:32:00,47.7,41.1,29.96,ENE,68,0.0,0.7,78,0.00,,,0.00,WUHU216HW,2013-04-21 11:32:00,
2013-04-21 04:37:00,47.5,41.0,29.96,ENE,68,0.4,0.7,78,0.00,,,0.00,WUHU216HW,2013-04-21 11:37:00,
2013-04-21 04:42:00,47.5,40.6,29.96,ENE,68,0.2,0.7,77,0.00,,,0.00,WUHU216HW,2013-04-21 11:42:00,
2013-04-21 04:47:00,47.3,40.5,29.96,South,180,0.0,0.7,77,0.00,,,0.00,WUHU216HW,2013-04-21 11:47:00,
2013-04-21 04:52:00,47.3,40.8,29.96,SSW,203,0.2,1.6,78,0.00,,,0.00,WUHU216HW,2013-04-21 11:52:00,
2013-04-21 04:57:00,47.3,40.8,29.96,ESE,113,0.0,1.6,78,0.00,,,0.00,WUHU216HW,2013-04-21 11:57:00,
2013-04-21 05:02:00,47.3,40.8,29.96,North,0,0.4,0.7,78,0.00,,,0.00,WUHU216HW,2013-04-21 12:02:00,
2013-04-21 05:07:00,47.3,40.8,29.96,NNE,23,0.2,0.9,78,0.00,,,0.00,WUHU216HW,2013-04-21 12:07:00,
2013-04-21 05:12:00,47.2,40.7,29.96,ENE,68,0.4,0.9,78,0.00,,,0.00,WUHU216HW,2013-04-21 12:12:00,
2013-04-21 05:17:00,47.2,40.7,29.96,ENE,68,0.4,1.1,78,0.00,,,0.00,WUHU216HW,2013-04-21 12:17:00,
2013-04-21 05:22:00,47.2,40.7,29.96,SSE,158,0.2,1.1,78,0.00,,,0.00,WUHU216HW,2013-04-21 12:22:00,
2013-04-21 05:27:00,47.2,41.0,29.96,SW,225,0.0,0.4,79,0.00,,,0.00,WUHU216HW,2013-04-21 12:27:00,
2013-04-21 05:32:00,47.2,41.0,29.96,ESE,113,0.4,0.9,79,0.00,,,0.00,WUHU216HW,2013-04-21 12:32:00,
2013-04-21 05:37:00,47.0,40.9,29.96,ESE,113,0.4,0.9,79,0.00,,,0.00,WUHU216HW,2013-04-21 12:37:00,
2013-04-21 05:42:00,47.0,40.5,29.96,East,90,0.0,0.4,78,0.00,,,0.00,WUHU216HW,2013-04-21 12:42:00,
2013-04-21 05:47:00,46.8,40.3,29.96,East,90,0.7,0.7,78,0.00,,,0.00,WUHU216HW,2013-04-21 12:47:00,
2013-04-21 05:52:00,46.8,40.3,29.96,ESE,113,0.0,0.7,78,0.00,,,0.00,WUHU216HW,2013-04-21 12:52:00,
2013-04-21 05:57:00,46.4,40.0,29.96,East,90,0.0,0.7,78,0.00,,,0.00,WUHU216HW,2013-04-21 12:57:00,
2013-04-21 06:02:00,46.4,40.0,29.97,NE,45,0.4,0.4,78,0.00,,,0.00,WUHU216HW,2013-04-21 13:02:00,
2013-04-21 06:07:00,46.3,39.8,29.97,NE,45,0.4,0.4,78,0.00,,,0.00,WUHU216HW,2013-04-21 13:07:00,
2013-04-21 06:12:00,46.3,40.1,29.97,ENE,68,0.4,0.7,79,0.00,,,0.00,WUHU216HW,2013-04-21 13:12:00,
2013-04-21 06:17:00,46.1,40.0,29.97,NE,45,0.0,0.7,79,0.00,,,0.00,WUHU216HW,2013-04-21 13:17:00,
2013-04-21 06:22:00,46.1,40.0,29.97,NE,45,0.0,0.0,79,0.00,,,0.00,WUHU216HW,2013-04-21 13:22:00,
2013-04-21 06:27:00,45.9,39.4,29.97,WNW,293,0.0,0.2,78,0.00,,,0.00,WUHU216HW,2013-04-21 13:27:00,
2013-04-21 06:32:00,45.9,39.8,29.97,North,0,0.0,0.2,79,0.00,,,0.00,WUHU216HW,2013-04-21 13:32:00,
2013-04-21 06:37:00,45.7,40.0,29.97,NE,45,0.2,1.1,80,0.00,,,0.00,WUHU216HW,2013-04-21 13:37:00,
2013-04-21 06:42:00,45.7,39.6,29.97,NE,45,0.0,1.1,79,0.00,,,0.00,WUHU216HW,2013-04-21 13:42:00,
2013-04-21 06:47:00,45.7,39.6,29.98,NE,45,0.0,0.4,79,0.00,,,0.00,WUHU216HW,2013-04-21 13:47:00,
2013-04-21 06:52:00,45.5,39.8,29.98,NE,45,0.2,0.4,80,0.00,,,0.00,WUHU216HW,2013-04-21 13:52:00,
2013-04-21 06:57:00,45.7,40.0,29.98,NE,45,0.4,0.4,80,0.00,,,0.00,WUHU216HW,2013-04-21 13:57:00,
2013-04-21 07:02:00,45.7,40.2,29.98,NE,45,0.0,0.4,81,0.00,,,0.00,WUHU216HW,2013-04-21 14:02:00,
2013-04-21 07:07:00,45.9,40.4,29.98,East,90,0.0,0.4,81,0.00,,,0.00,WUHU216HW,2013-04-21 14:07:00,
2013-04-21 07:12:00,46.1,40.6,29.98,East,90,0.0,0.4,81,0.00,,,0.00,WUHU216HW,2013-04-21 14:12:00,
2013-04-21 07:17:00,46.4,41.0,29.98,East,90,0.0,0.2,81,0.00,,,0.00,WUHU216HW,2013-04-21 14:17:00,
2013-04-21 07:22:00,46.6,41.8,29.99,East,90,0.0,0.4,83,0.00,,,0.00,WUHU216HW,2013-04-21 14:22:00,
2013-04-21 07:27:00,47.0,42.1,29.99,East,90,0.4,0.7,83,0.00,,,0.00,WUHU216HW,2013-04-21 14:27:00,
2013-04-21 07:32:00,47.5,42.3,29.99,ENE,68,0.7,0.7,82,0.00,,,0.00,WUHU216HW,2013-04-21 14:32:00,
2013-04-21 07:37:00,48.1,42.5,29.99,ENE,68,0.0,0.7,81,0.00,,,0.00,WUHU216HW,2013-04-21 14:37:00,
2013-04-21 07:42:00,48.6,43.3,30.00,ESE,113,0.0,0.4,82,0.00,,,0.00,WUHU216HW,2013-04-21 14:42:00,
2013-04-21 07:47:00,49.3,43.7,30.00,SE,135,0.0,0.2,81,0.00,,,0.00,WUHU216HW,2013-04-21 14:47:00,
2013-04-21 07:52:00,49.9,43.9,30.00,ESE,113,0.0,0.0,80,0.00,,,0.00,WUHU216HW,2013-04-21 14:52:00,
2013-04-21 07:57:00,50.6,43.9,30.00,SE,135,0.4,0.4,78,0.00,,,0.00,WUHU216HW,2013-04-21 14:57:00,
2013-04-21 08:02:00,51.3,44.4,30.00,SSE,158,0.0,0.4,77,0.00,,,0.00,WUHU216HW,2013-04-21 15:02:00,
2013-04-21 08:07:00,52.0,44.7,30.00,SSE,158,0.0,1.1,76,0.00,,,0.00,WUHU216HW,2013-04-21 15:07:00,
2013-04-21 08:12:00,52.7,45.0,30.00,SSE,158,0.9,1.1,75,0.00,,,0.00,WUHU216HW,2013-04-21 15:12:00,
2013-04-21 08:17:00,53.5,45.7,30.00,South,180,0.4,0.9,75,0.00,,,0.00,WUHU216HW,2013-04-21 15:17:00,
2013-04-21 08:22:00,54.0,45.6,30.00,South,180,0.4,0.9,73,0.00,,,0.00,WUHU216HW,2013-04-21 15:22:00,
2013-04-21 08:27:00,54.9,46.1,30.00,SSE,158,2.7,2.7,72,0.00,,,0.00,WUHU216HW,2013-04-21 15:27:00,
2013-04-21 08:32:00,55.4,46.3,30.01,East,90,2.2,2.7,71,0.00,,,0.00,WUHU216HW,2013-04-21 15:32:00,
2013-04-21 08:37:00,56.3,46.7,30.01,East,90,0.9,2.2,70,0.00,,,0.00,WUHU216HW,2013-04-21 15:37:00,
2013-04-21 08:42:00,57.2,46.7,30.01,East,90,0.7,2.2,68,0.00,,,0.00,WUHU216HW,2013-04-21 15:42:00,
2013-04-21 08:47:00,57.8,46.9,30.01,ESE,113,0.9,2.2,67,0.00,,,0.00,WUHU216HW,2013-04-21 15:47:00,
2013-04-21 08:52:00,58.7,47.4,30.01,SSW,203,0.7,1.6,66,0.00,,,0.00,WUHU216HW,2013-04-21 15:52:00,
2013-04-21 08:57:00,59.4,47.2,30.01,NE,45,0.2,1.1,64,0.00,,,0.00,WUHU216HW,2013-04-21 15:57:00,
2013-04-21 09:02:00,60.3,47.7,30.00,SE,135,1.1,2.2,63,0.00,,,0.00,WUHU216HW,2013-04-21 16:02:00,
2013-04-21 09:07:00,61.2,49.0,30.00,SSE,158,0.9,2.2,64,0.00,,,0.00,WUHU216HW,2013-04-21 16:07:00,
2013-04-21 09:12:00,61.9,48.0,30.00,South,180,1.6,2.2,60,0.00,,,0.00,WUHU216HW,2013-04-21 16:12:00,
2013-04-21 09:17:00,62.8,47.4,30.00,SE,135,2.9,2.9,57,0.00,,,0.00,WUHU216HW,2013-04-21 16:17:00,
2013-04-21 09:22:00,63.7,48.2,30.00,ESE,113,0.9,4.3,57,0.00,,,0.00,WUHU216HW,2013-04-21 16:22:00,
2013-04-21 09:27:00,64.8,48.2,30.00,SSE,158,1.3,4.3,55,0.00,,,0.00,WUHU216HW,2013-04-21 16:27:00,
2013-04-21 09:32:00,65.5,48.4,30.00,SE,135,1.1,2.7,54,0.00,,,0.00,WUHU216HW,2013-04-21 16:32:00,
2013-04-21 09:37:00,66.4,47.8,30.00,South,180,2.5,2.9,51,0.00,,,0.00,WUHU216HW,2013-04-21 16:37:00,
2013-04-21 09:42:00,67.3,46.4,30.00,SSE,158,2.5,4.0,47,0.00,,,0.00,WUHU216HW,2013-04-21 16:42:00,
2013-04-21 09:47:00,68.4,46.7,30.00,SE,135,2.5,4.0,46,0.00,,,0.00,WUHU216HW,2013-04-21 16:47:00,
2013-04-21 09:52:00,69.3,47.0,30.00,SSE,158,2.5,2.7,45,0.00,,,0.00,WUHU216HW,2013-04-21 16:52:00,
2013-04-21 09:57:00,70.2,47.2,30.00,SE,135,1.6,2.7,44,0.00,,,0.00,WUHU216HW,2013-04-21 16:57:00,
2013-04-21 10:02:00,71.1,47.3,30.00,SE,135,2.9,2.9,43,0.00,,,0.00,WUHU216HW,2013-04-21 17:02:00,
2013-04-21 10:07:00,71.8,46.8,30.00,ESE,113,1.8,2.9,41,0.00,,,0.00,WUHU216HW,2013-04-21 17:07:00,
2013-04-21 10:12:00,72.5,46.9,30.00,SE,135,0.0,2.9,40,0.00,,,0.00,WUHU216HW,2013-04-21 17:12:00,
2013-04-21 10:17:00,73.4,47.7,30.00,SE,135,1.6,2.5,40,0.00,,,0.00,WUHU216HW,2013-04-21 17:17:00,
2013-04-21 10:22:00,74.2,46.1,30.00,SSW,203,1.8,2.5,37,0.00,,,0.00,WUHU216HW,2013-04-21 17:22:00,
2013-04-21 10:27:00,74.7,46.5,30.00,East,90,1.6,3.4,37,0.00,,,0.00,WUHU216HW,2013-04-21 17:27:00,
2013-04-21 10:32:00,75.4,47.3,30.01,ESE,113,1.1,3.4,37,0.00,,,0.00,WUHU216HW,2013-04-21 17:32:00,
2013-04-21 10:37:00,75.8,43.7,30.01,SSE,158,2.2,3.1,32,0.00,,,0.00,WUHU216HW,2013-04-21 17:37:00,
2013-04-21 10:42:00,76.1,44.8,30.01,ESE,113,1.1,3.1,33,0.00,,,0.00,WUHU216HW,2013-04-21 17:42:00,
2013-04-21 10:47:00,76.7,43.8,30.00,East,90,1.1,3.4,31,0.00,,,0.00,WUHU216HW,2013-04-21 17:47:00,
2013-04-21 10:52:00,77.4,43.7,30.01,SSW,203,2.0,3.4,30,0.00,,,0.00,WUHU216HW,2013-04-21 17:52:00,
2013-04-21 10:57:00,77.8,43.9,30.00,East,90,1.8,3.4,30,0.00,,,0.00,WUHU216HW,2013-04-21 17:57:00,
2013-04-21 11:02:00,78.5,43.5,30.01,SSE,158,3.8,5.1,29,0.00,,,0.00,WUHU216HW,2013-04-21 18:02:00,
2013-04-21 11:07:00,79.2,45.9,30.01,SSE,158,1.8,5.1,31,0.00,,,0.00,WUHU216HW,2013-04-21 18:07:00,
2013-04-21 11:12:00,79.6,43.4,30.00,West,270,1.1,3.4,28,0.00,,,0.00,WUHU216HW,2013-04-21 18:12:00,
2013-04-21 11:17:00,79.6,42.3,30.00,South,180,0.4,4.7,27,0.00,,,0.00,WUHU216HW,2013-04-21 18:17:00,
2013-04-21 11:22:00,79.7,42.5,30.00,South,180,2.5,4.7,27,0.00,,,0.00,WUHU216HW,2013-04-21 18:22:00,
2013-04-21 11:27:00,80.1,43.8,30.00,SE,135,2.0,4.0,28,0.00,,,0.00,WUHU216HW,2013-04-21 18:27:00,
2013-04-21 11:32:00,80.5,42.1,30.00,NW,315,0.2,4.0,26,0.00,,,0.00,WUHU216HW,2013-04-21 18:32:00,
2013-04-21 11:37:00,80.5,44.2,30.00,North,0,0.4,4.0,28,0.00,,,0.00,WUHU216HW,2013-04-21 18:37:00,
2013-04-21 11:42:00,80.8,42.4,30.00,East,90,1.8,1.8,26,0.00,,,0.00,WUHU216HW,2013-04-21 18:42:00,
2013-04-21 11:47:00,81.4,41.8,30.00,NNE,23,0.4,2.2,25,0.00,,,0.00,WUHU216HW,2013-04-21 18:47:00,
2013-04-21 11:52:00,81.4,41.8,30.00,WNW,293,1.8,2.2,25,0.00,,,0.00,WUHU216HW,2013-04-21 18:52:00,
2013-04-21 11:57:00,81.7,42.1,30.00,WNW,293,1.1,1.8,25,0.00,,,0.00,WUHU216HW,2013-04-21 18:57:00,
2013-04-21 12:02:00,82.1,41.3,29.99,SSW,203,2.5,2.5,24,0.00,,,0.00,WUHU216HW,2013-04-21 19:02:00,
2013-04-21 12:07:00,82.1,42.4,29.99,SW,225,2.2,6.5,25,0.00,,,0.00,WUHU216HW,2013-04-21 19:07:00,
2013-04-21 12:12:00,82.1,41.3,29.99,WNW,293,3.4,6.5,24,0.00,,,0.00,WUHU216HW,2013-04-21 19:12:00,
2013-04-21 12:17:00,82.3,40.4,29.99,NNW,338,1.1,5.4,23,0.00,,,0.00,WUHU216HW,2013-04-21 19:17:00,
2013-04-21 12:22:00,82.4,40.6,29.99,NNE,23,1.8,5.4,23,0.00,,,0.00,WUHU216HW,2013-04-21 19:22:00,
2013-04-21 12:27:00,82.4,40.6,29.98,East,90,5.4,5.4,23,0.00,,,0.00,WUHU216HW,2013-04-21 19:27:00,
2013-04-21 12:32:00,82.4,41.6,29.98,WNW,293,2.7,5.4,24,0.00,,,0.00,WUHU216HW,2013-04-21 19:32:00,
2013-04-21 12:37:00,82.6,41.8,29.98,NNW,338,0.9,3.1,24,0.00,,,0.00,WUHU216HW,2013-04-21 19:37:00,
2013-04-21 12:42:00,83.2,40.2,29.98,SW,225,4.7,4.7,22,0.00,,,0.00,WUHU216HW,2013-04-21 19:42:00,
2013-04-21 12:47:00,83.5,42.5,29.97,NNE,23,0.2,4.7,24,0.00,,,0.00,WUHU216HW,2013-04-21 19:47:00,
2013-04-21 12:52:00,84.1,42.0,29.97,WNW,293,2.2,2.5,23,0.00,,,0.00,WUHU216HW,2013-04-21 19:52:00,
2013-04-21 12:57:00,84.2,41.1,29.97,NW,315,3.4,4.7,22,0.00,,,0.00,WUHU216HW,2013-04-21 19:57:00,
2013-04-21 13:02:00,84.2,41.1,29.97,SSE,158,1.8,4.7,22,0.00,,,0.00,WUHU216HW,2013-04-21 20:02:00,
2013-04-21 13:07:00,84.2,41.1,29.97,ESE,113,2.0,4.0,22,0.00,,,0.00,WUHU216HW,2013-04-21 20:07:00,
2013-04-21 13:12:00,84.2,40.0,29.96,SW,225,2.0,4.0,21,0.00,,,0.00,WUHU216HW,2013-04-21 20:12:00,
2013-04-21 13:17:00,84.8,41.5,29.96,WNW,293,1.8,4.7,22,0.00,,,0.00,WUHU216HW,2013-04-21 20:17:00,
2013-04-21 13:22:00,85.5,42.0,29.96,West,270,0.9,4.7,22,0.00,,,0.00,WUHU216HW,2013-04-21 20:22:00,
2013-04-21 13:27:00,85.7,42.2,29.96,NNW,338,2.0,4.5,22,0.00,,,0.00,WUHU216HW,2013-04-21 20:27:00,
2013-04-21 13:32:00,85.5,38.2,29.96,WSW,248,4.5,4.5,19,0.00,,,0.00,WUHU216HW,2013-04-21 20:32:00,
2013-04-21 13:37:00,85.3,38.1,29.96,West,270,3.4,5.4,19,0.00,,,0.00,WUHU216HW,2013-04-21 20:37:00,
2013-04-21 13:42:00,85.7,42.2,29.96,WSW,248,4.5,5.4,22,0.00,,,0.00,WUHU216HW,2013-04-21 20:42:00,
2013-04-21 13:47:00,86.0,38.6,29.96,SSE,158,4.7,5.1,19,0.00,,,0.00,WUHU216HW,2013-04-21 20:47:00,
2013-04-21 13:52:00,85.9,38.4,29.96,SSW,203,5.4,5.4,19,0.00,,,0.00,WUHU216HW,2013-04-21 20:52:00,
2013-04-21 13:57:00,86.0,36.9,29.95,West,270,1.3,5.4,18,0.00,,,0.00,WUHU216HW,2013-04-21 20:57:00,
2013-04-21 14:02:00,86.4,39.0,29.95,SW,225,4.3,4.7,19,0.00,,,0.00,WUHU216HW,2013-04-21 21:02:00,
2013-04-21 14:07:00,86.9,39.4,29.95,West,270,3.4,5.8,19,0.00,,,0.00,WUHU216HW,2013-04-21 21:07:00,
2013-04-21 14:12:00,87.3,38.0,29.95,South,180,2.7,5.8,18,0.00,,,0.00,WUHU216HW,2013-04-21 21:12:00,
2013-04-21 14:17:00,87.1,39.6,29.95,SW,225,2.5,5.6,19,0.00,,,0.00,WUHU216HW,2013-04-21 21:17:00,
2013-04-21 14:22:00,87.1,37.9,29.95,WSW,248,1.3,5.6,18,0.00,,,0.00,WUHU216HW,2013-04-21 21:22:00,
2013-04-21 14:27:00,87.3,38.0,29.95,WSW,248,4.5,6.3,18,0.00,,,0.00,WUHU216HW,2013-04-21 21:27:00,
2013-04-21 14:32:00,87.5,39.9,29.95,NNE,23,1.3,6.3,19,0.00,,,0.00,WUHU216HW,2013-04-21 21:32:00,
2013-04-21 14:37:00,88.0,38.6,29.95,NNW,338,1.1,5.1,18,0.00,,,0.00,WUHU216HW,2013-04-21 21:37:00,
2013-04-21 14:42:00,88.2,37.0,29.95,NW,315,1.8,5.4,17,0.00,,,0.00,WUHU216HW,2013-04-21 21:42:00,
2013-04-21 14:47:00,88.6,35.6,29.95,NW,315,5.6,6.9,16,0.00,,,0.00,WUHU216HW,2013-04-21 21:47:00,
2013-04-21 14:52:00,88.4,37.2,29.94,West,270,5.4,6.9,17,0.00,,,0.00,WUHU216HW,2013-04-21 21:52:00,
2013-04-21 14:57:00,88.2,38.8,29.94,WNW,293,3.4,5.8,18,0.00,,,0.00,WUHU216HW,2013-04-21 21:57:00,
2013-04-21 15:02:00,88.4,38.9,29.94,West,270,2.0,4.3,18,0.00,,,0.00,WUHU216HW,2013-04-21 22:02:00,
2013-04-21 15:07:00,88.6,37.4,29.94,NW,315,1.6,4.7,17,0.00,,,0.00,WUHU216HW,2013-04-21 22:07:00,
2013-04-21 15:12:00,88.4,37.2,29.94,WNW,293,6.3,6.3,17,0.00,,,0.00,WUHU216HW,2013-04-21 22:12:00,
2013-04-21 15:17:00,88.4,38.9,29.94,West,270,1.8,6.3,18,0.00,,,0.00,WUHU216HW,2013-04-21 22:17:00,
2013-04-21 15:22:00,88.4,38.9,29.93,WNW,293,4.5,6.3,18,0.00,,,0.00,WUHU216HW,2013-04-21 22:22:00,
2013-04-21 15:27:00,88.4,40.7,29.93,NNW,338,4.9,6.3,19,0.00,,,0.00,WUHU216HW,2013-04-21 22:27:00,
2013-04-21 15:32:00,88.6,39.1,29.93,WSW,248,4.7,7.6,18,0.00,,,0.00,WUHU216HW,2013-04-21 22:32:00,
2013-04-21 15:37:00,88.7,39.2,29.93,NW,315,1.6,7.6,18,0.00,,,0.00,WUHU216HW,2013-04-21 22:37:00,
2013-04-21 15:42:00,88.7,35.7,29.93,WNW,293,4.5,5.4,16,0.00,,,0.00,WUHU216HW,2013-04-21 22:42:00,
2013-04-21 15:47:00,88.6,39.1,29.93,North,0,0.4,4.5,18,0.00,,,0.00,WUHU216HW,2013-04-21 22:47:00,
2013-04-21 15:52:00,88.7,39.2,29.93,West,270,0.2,6.3,18,0.00,,,0.00,WUHU216HW,2013-04-21 22:52:00,
2013-04-21 15:57:00,89.1,39.5,29.92,WNW,293,0.9,6.3,18,0.00,,,0.00,WUHU216HW,2013-04-21 22:57:00,
2013-04-21 16:02:00,89.3,37.9,29.92,NNE,23,2.5,6.3,17,0.00,,,0.00,WUHU216HW,2013-04-21 23:02:00,
2013-04-21 16:07:00,89.3,39.6,29.92,NW,315,2.9,4.7,18,0.00,,,0.00,WUHU216HW,2013-04-21 23:07:00,
2013-04-21 16:12:00,89.5,39.8,29.92,North,0,1.1,3.8,18,0.00,,,0.00,WUHU216HW,2013-04-21 23:12:00,
2013-04-21 16:17:00,89.5,39.8,29.92,NNW,338,2.5,6.5,18,0.00,,,0.00,WUHU216HW,2013-04-21 23:17:00,
2013-04-21 16:22:00,89.5,41.5,29.92,NW,315,1.6,6.5,19,0.00,,,0.00,WUHU216HW,2013-04-21 23:22:00,
2013-04-21 16:27:00,89.8,41.8,29.92,West,270,2.9,3.4,19,0.00,,,0.00,WUHU216HW,2013-04-21 23:27:00,
2013-04-21 16:32:00,89.8,44.7,29.92,North,0,3.8,3.8,21,0.00,,,0.00,WUHU216HW,2013-04-21 23:32:00,
2013-04-21 16:37:00,89.6,44.5,29.92,WNW,293,3.6,3.8,21,0.00,,,0.00,WUHU216HW,2013-04-21 23:37:00,
2013-04-21 16:42:00,89.3,44.2,29.92,West,270,6.5,6.5,21,0.00,,,0.00,WUHU216HW,2013-04-21 23:42:00,
2013-04-21 16:47:00,89.3,45.3,29.92,NW,315,5.8,6.5,22,0.00,,,0.00,WUHU216HW,2013-04-21 23:47:00,
2013-04-21 16:52:00,88.9,44.9,29.92,West,270,0.4,5.8,22,0.00,,,0.00,WUHU216HW,2013-04-21 23:52:00,
2013-04-21 16:57:00,88.9,43.9,29.92,WNW,293,3.6,6.3,21,0.00,,,0.00,WUHU216HW,2013-04-21 23:57:00,
2013-04-21 17:02:00,88.4,43.5,29.92,WNW,293,4.0,6.3,21,0.00,,,0.00,WUHU216HW,2013-04-22 00:02:00,
2013-04-21 17:07:00,87.8,43.0,29.91,WNW,293,3.4,5.4,21,0.00,,,0.00,WUHU216HW,2013-04-22 00:07:00,
2013-04-21 17:12:00,87.7,42.8,29.92,NNE,23,1.1,5.4,21,0.00,,,0.00,WUHU216HW,2013-04-22 00:12:00,
2013-04-21 17:17:00,87.5,42.7,29.91,West,270,3.4,4.9,21,0.00,,,0.00,WUHU216HW,2013-04-22 00:17:00,
2013-04-21 17:22:00,87.5,42.7,29.91,NW,315,1.6,5.1,21,0.00,,,0.00,WUHU216HW,2013-04-22 00:22:00,
2013-04-21 17:27:00,87.1,43.5,29.91,West,270,4.9,5.1,22,0.00,,,0.00,WUHU216HW,2013-04-22 00:27:00,
2013-04-21 17:32:00,86.9,42.2,29.91,WSW,248,4.5,4.9,21,0.00,,,0.00,WUHU216HW,2013-04-22 00:32:00,
2013-04-21 17:37:00,86.8,42.0,29.91,West,270,4.0,4.7,21,0.00,,,0.00,WUHU216HW,2013-04-22 00:37:00,
2013-04-21 17:42:00,86.4,42.9,29.91,NNW,338,0.4,4.0,22,0.00,,,0.00,WUHU216HW,2013-04-22 00:42:00,
2013-04-21 17:47:00,86.4,42.9,29.91,WSW,248,2.9,5.6,22,0.00,,,0.00,WUHU216HW,2013-04-22 00:47:00,
2013-04-21 17:52:00,86.0,42.5,29.91,West,270,0.2,5.6,22,0.00,,,0.00,WUHU216HW,2013-04-22 00:52:00,
2013-04-21 17:57:00,85.9,42.3,29.91,West,270,0.4,3.1,22,0.00,,,0.00,WUHU216HW,2013-04-22 00:57:00,
2013-04-21 18:02:00,85.5,42.0,29.90,West,270,5.4,5.4,22,0.00,,,0.00,WUHU216HW,2013-04-22 01:02:00,
2013-04-21 18:07:00,85.1,42.9,29.90,West,270,1.6,5.4,23,0.00,,,0.00,WUHU216HW,2013-04-22 01:07:00,
2013-04-21 18:12:00,85.0,42.7,29.90,NW,315,1.1,4.7,23,0.00,,,0.00,WUHU216HW,2013-04-22 01:12:00,
2013-04-21 18:17:00,84.6,42.4,29.90,WNW,293,2.7,3.6,23,0.00,,,0.00,WUHU216HW,2013-04-22 01:17:00,
2013-04-21 18:22:00,84.4,42.2,29.90,WNW,293,1.8,3.6,23,0.00,,,0.00,WUHU216HW,2013-04-22 01:22:00,
2013-04-21 18:27:00,84.2,42.0,29.90,WSW,248,1.1,3.6,23,0.00,,,0.00,WUHU216HW,2013-04-22 01:27:00,
2013-04-21 18:32:00,83.9,41.8,29.90,NW,315,1.1,3.8,23,0.00,,,0.00,WUHU216HW,2013-04-22 01:32:00,
2013-04-21 18:37:00,83.7,42.7,29.90,WNW,293,5.6,5.6,24,0.00,,,0.00,WUHU216HW,2013-04-22 01:37:00,
2013-04-21 18:42:00,83.5,44.7,29.90,WNW,293,3.1,5.6,26,0.00,,,0.00,WUHU216HW,2013-04-22 01:42:00,
2013-04-21 18:47:00,83.0,46.3,29.90,WNW,293,4.9,4.9,28,0.00,,,0.00,WUHU216HW,2013-04-22 01:47:00,
2013-04-21 18:52:00,82.8,47.2,29.90,West,270,4.9,5.1,29,0.00,,,0.00,WUHU216HW,2013-04-22 01:52:00,
2013-04-21 18:57:00,82.3,47.7,29.90,WSW,248,4.9,5.1,30,0.00,,,0.00,WUHU216HW,2013-04-22 01:57:00,
2013-04-21 19:02:00,81.7,47.4,29.90,West,270,4.9,4.9,30,0.00,,,0.00,WUHU216HW,2013-04-22 02:02:00,
2013-04-21 19:07:00,81.4,47.0,29.90,WNW,293,1.3,4.9,30,0.00,,,0.00,WUHU216HW,2013-04-22 02:07:00,
2013-04-21 19:12:00,80.8,46.6,29.90,WNW,293,1.6,4.9,30,0.00,,,0.00,WUHU216HW,2013-04-22 02:12:00,
2013-04-21 19:17:00,80.5,47.1,29.90,WNW,293,0.7,4.9,31,0.00,,,0.00,WUHU216HW,2013-04-22 02:17:00,
2013-04-21 19:22:00,79.9,46.5,29.90,NW,315,1.6,3.4,31,0.00,,,0.00,WUHU216HW,2013-04-22 02:22:00,
2013-04-21 19:27:00,79.6,47.0,29.90,NNW,338,0.4,3.4,32,0.00,,,0.00,WUHU216HW,2013-04-22 02:27:00,
2013-04-21 19:32:00,79.2,46.7,29.90,WNW,293,0.0,3.4,32,0.00,,,0.00,WUHU216HW,2013-04-22 02:32:00,
2013-04-21 19:37:00,78.5,46.8,29.90,NNW,338,0.2,2.5,33,0.00,,,0.00,WUHU216HW,2013-04-22 02:37:00,
2013-04-21 19:42:00,78.1,46.5,29.90,WNW,293,0.4,2.7,33,0.00,,,0.00,WUHU216HW,2013-04-22 02:42:00,
2013-04-21 19:47:00,77.6,46.9,29.90,NW,315,0.4,2.7,34,0.00,,,0.00,WUHU216HW,2013-04-22 02:47:00,
2013-04-21 19:52:00,77.2,46.5,29.90,WNW,293,0.0,0.4,34,0.00,,,0.00,WUHU216HW,2013-04-22 02:52:00,
2013-04-21 19:57:00,76.5,46.7,29.90,NW,315,0.0,0.9,35,0.00,,,0.00,WUHU216HW,2013-04-22 02:57:00,
2013-04-21 20:02:00,76.0,47.0,29.90,NW,315,0.0,1.8,36,0.00,,,0.00,WUHU216HW,2013-04-22 03:02:00,
2013-04-21 20:07:00,75.4,47.3,29.90,NNW,338,0.0,1.8,37,0.00,,,0.00,WUHU216HW,2013-04-22 03:07:00,
2013-04-21 20:12:00,75.1,46.9,29.91,West,270,1.1,1.8,37,0.00,,,0.00,WUHU216HW,2013-04-22 03:12:00,
2013-04-21 20:17:00,74.5,46.5,29.91,North,0,0.4,1.1,37,0.00,,,0.00,WUHU216HW,2013-04-22 03:17:00,
2013-04-21 20:22:00,73.8,46.5,29.91,North,0,0.4,0.7,38,0.00,,,0.00,WUHU216HW,2013-04-22 03:22:00,
2013-04-21 20:27:00,73.4,46.2,29.91,NW,315,0.0,1.3,38,0.00,,,0.00,WUHU216HW,2013-04-22 03:27:00,
2013-04-21 20:32:00,73.1,46.6,29.91,NNE,23,0.0,1.3,39,0.00,,,0.00,WUHU216HW,2013-04-22 03:32:00,
2013-04-21 20:37:00,72.5,46.2,29.91,NNE,23,0.2,0.9,39,0.00,,,0.00,WUHU216HW,2013-04-22 03:37:00,
2013-04-21 20:42:00,72.2,45.8,29.91,NNE,23,0.0,0.2,39,0.00,,,0.00,WUHU216HW,2013-04-22 03:42:00,
2013-04-21 20:47:00,71.6,45.4,29.92,NNE,23,0.0,0.2,39,0.00,,,0.00,WUHU216HW,2013-04-22 03:47:00,
2013-04-21 20:52:00,71.3,45.7,29.92,North,0,0.0,0.2,40,0.00,,,0.00,WUHU216HW,2013-04-22 03:52:00,
2013-04-21 20:57:00,70.9,45.5,29.92,NNE,23,0.4,0.4,40,0.00,,,0.00,WUHU216HW,2013-04-22 03:57:00,
2013-04-21 21:01:00,70.6,45.1,29.92,NNE,23,0.0,0.4,40,0.00,,,0.00,WUHU216HW,2013-04-22 04:01:00,
2013-04-21 21:06:00,70.0,45.2,29.92,NNE,23,0.2,0.4,41,0.00,,,0.00,WUHU216HW,2013-04-22 04:06:00,
2013-04-21 21:11:00,69.7,44.9,29.92,NNE,23,0.0,0.4,41,0.00,,,0.00,WUHU216HW,2013-04-22 04:11:00,
2013-04-21 21:16:00,69.3,45.2,29.92,NNE,23,0.2,0.4,42,0.00,,,0.00,WUHU216HW,2013-04-22 04:16:00,
2013-04-21 21:21:00,69.1,45.0,29.92,NE,45,0.4,0.4,42,0.00,,,0.00,WUHU216HW,2013-04-22 04:21:00,
2013-04-21 21:26:00,68.8,44.6,29.92,NE,45,0.0,0.4,42,0.00,,,0.00,WUHU216HW,2013-04-22 04:26:00,
2013-04-21 21:31:00,68.4,44.9,29.93,NE,45,0.2,0.4,43,0.00,,,0.00,WUHU216HW,2013-04-22 04:31:00,
2013-04-21 21:36:00,68.0,45.2,29.93,NE,45,0.0,0.4,44,0.00,,,0.00,WUHU216HW,2013-04-22 04:36:00,
2013-04-21 21:41:00,67.9,45.1,29.93,NE,45,0.0,0.4,44,0.00,,,0.00,WUHU216HW,2013-04-22 04:41:00,
2013-04-21 21:46:00,67.3,44.6,29.93,NE,45,0.0,0.0,44,0.00,,,0.00,WUHU216HW,2013-04-22 04:46:00,
2013-04-21 21:51:00,67.0,44.8,29.93,NE,45,0.4,0.4,45,0.00,,,0.00,WUHU216HW,2013-04-22 04:51:00,
2013-04-21 21:56:00,66.6,44.6,29.94,NE,45,0.4,0.4,45,0.00,,,0.00,WUHU216HW,2013-04-22 04:56:00,
2013-04-21 22:01:00,66.2,45.4,29.94,NE,45,0.4,0.4,47,0.00,,,0.00,WUHU216HW,2013-04-22 05:01:00,
2013-04-21 22:06:00,65.9,45.0,29.94,NE,45,0.0,0.4,47,0.00,,,0.00,WUHU216HW,2013-04-22 05:06:00,
2013-04-21 22:11:00,65.5,44.6,29.94,NE,45,0.0,0.4,47,0.00,,,0.00,WUHU216HW,2013-04-22 05:11:00,
2013-04-21 22:16:00,65.2,44.9,29.94,NE,45,0.0,0.2,48,0.00,,,0.00,WUHU216HW,2013-04-22 05:16:00,
2013-04-21 22:21:00,64.8,44.6,29.94,NE,45,0.2,0.2,48,0.00,,,0.00,WUHU216HW,2013-04-22 05:21:00,
2013-04-21 22:26:00,64.4,44.8,29.94,NE,45,0.0,0.4,49,0.00,,,0.00,WUHU216HW,2013-04-22 05:26:00,
2013-04-21 22:31:00,64.1,45.0,29.94,NE,45,0.0,0.4,50,0.00,,,0.00,WUHU216HW,2013-04-22 05:31:00,
2013-04-21 22:36:00,63.7,45.2,29.94,ENE,68,0.0,0.9,51,0.00,,,0.00,WUHU216HW,2013-04-22 05:36:00,
2013-04-21 22:41:00,63.2,44.7,29.94,ENE,68,0.7,0.9,51,0.00,,,0.00,WUHU216HW,2013-04-22 05:41:00,
2013-04-21 22:46:00,62.8,44.4,29.94,ENE,68,0.0,0.7,51,0.00,,,0.00,WUHU216HW,2013-04-22 05:46:00,
2013-04-21 22:51:00,62.6,44.2,29.94,ENE,68,0.2,0.4,51,0.00,,,0.00,WUHU216HW,2013-04-22 05:51:00,
2013-04-21 22:56:00,62.3,44.4,29.94,ENE,68,0.0,0.4,52,0.00,,,0.00,WUHU216HW,2013-04-22 05:56:00,
2013-04-21 23:01:00,61.9,44.1,29.94,ENE,68,0.0,0.2,52,0.00,,,0.00,WUHU216HW,2013-04-22 06:01:00,
2013-04-21 23:06:00,61.6,44.2,29.94,East,90,0.0,0.2,53,0.00,,,0.00,WUHU216HW,2013-04-22 06:06:00,
2013-04-21 23:11:00,61.2,44.4,29.94,ENE,68,0.4,0.4,54,0.00,,,0.00,WUHU216HW,2013-04-22 06:11:00,
2013-04-21 23:16:00,61.0,44.2,29.94,East,90,0.4,0.4,54,0.00,,,0.00,WUHU216HW,2013-04-22 06:16:00,
2013-04-21 23:21:00,60.7,44.4,29.94,NNE,23,0.2,0.4,55,0.00,,,0.00,WUHU216HW,2013-04-22 06:21:00,
2013-04-21 23:26:00,60.5,44.7,29.94,NE,45,0.2,0.4,56,0.00,,,0.00,WUHU216HW,2013-04-22 06:26:00,
2013-04-21 23:31:00,60.1,44.4,29.93,NE,45,0.0,0.4,56,0.00,,,0.00,WUHU216HW,2013-04-22 06:31:00,
2013-04-21 23:36:00,59.9,44.2,29.94,NE,45,0.0,0.4,56,0.00,,,0.00,WUHU216HW,2013-04-22 06:36:00,
2013-04-21 23:41:00,59.6,44.3,29.94,NE,45,0.0,0.4,57,0.00,,,0.00,WUHU216HW,2013-04-22 06:41:00,
2013-04-21 23:46:00,59.4,44.1,29.93,NE,45,0.0,0.0,57,0.00,,,0.00,WUHU216HW,2013-04-22 06:46:00,
2013-04-21 23:51:00,59.2,44.5,29.94,NE,45,0.0,0.0,58,0.00,,,0.00,WUHU216HW,2013-04-22 06:51:00,
2013-04-21 23:56:00,59.0,44.3,29.94,NE,45,0.2,0.2,58,0.00,,,0.00,WUHU216HW,2013-04-22 06:56:00,